Location: NJAA Observatory
(40.6819°N, 74.8979°W)
Time: 19:13:42
(UTC-05:00)

Daily predictions for brighter satellites

Satellite Brightness Start Highest point End
(mag) Time Altitude Azimuth Time Altitude Azimuth Time Altitude Azimuth
Cosmos 2360 Rocket 3.2 17:24:43 10° SW 17:30:06 47° WNW 17:35:32 10° NNE
Cosmos 2228 Rocket 3.2 17:26:18 10° N 17:30:38 53° E 17:34:57 10° SSE
Meteor 1-21 Rocket 4.4 17:26:55 10° S 17:32:50 85° E 17:38:44 10° N
Cosmos 1408 Rocket 4.1 17:31:27 10° SSW 17:35:53 66° W 17:40:18 10° N
SJ-6B 4.5 17:36:01 10° E 17:38:23 15° ENE 17:40:47 10° NNE
USA 116 3.5 17:35:34 10° N 17:38:48 68° WNW 17:41:51 10° SSW
CZ-4 R/B 4.4 17:35:01 10° SSE 17:39:08 70° ENE 17:43:16 10° N
Cosmos 389 Rocket 3.2 17:39:46 10° NNW 17:43:19 59° W 17:46:48 10° S
Cosmos 2333 Rocket 2.6 17:38:15 10° S 17:43:34 44° ESE 17:48:54 10° NE
Atlas Centaur 2 4.1 17:40:00 10° WSW 17:43:35 18° SSW 17:46:41 10° SSE
COSMOS 2441 4.3 17:39:12 10° SSE 17:44:03 73° ENE 17:48:54 10° N
Cosmos 2058 4.1 17:41:06 10° SE 17:44:14 21° E 17:47:21 10° NE
Cosmos 1763 Rocket 3.6 17:41:21 10° SSW 17:46:35 82° WNW 17:51:48 10° NNE
CORIOLIS 4.4 17:42:39 10° S 17:47:59 77° WSW 17:53:22 10° NNW
BREEZE-M DEB (TANK) 4.4 17:51:33 10° WNW 17:54:25 39° SSW 18:01:45 10° SE
Cosmos 2219 Rocket 2.2 17:51:31 10° SSW 17:57:09 75° ESE 18:02:47 10° NNE
Cosmos 1743 Rocket 3.7 17:53:26 10° S 17:57:54 81° W 18:02:25 10° N
Cosmos 2278 Rocket 2.4 17:57:23 10° NNW 18:02:53 48° ENE 18:08:21 10° SE
Cosmos 1328 Rocket 4.0 17:59:20 10° NNW 18:03:45 68° W 18:08:10 10° S
Cosmos 2142 Rocket 4.5 17:57:23 10° N 18:03:48 71° E 18:10:07 10° SSE
Cosmos 540 Rocket 3.6 18:02:18 10° S 18:07:18 53° ESE 18:12:21 10° NNE
USA 215 3.3 18:00:58 10° ESE 18:07:25 64° NE 18:13:53 10° NW
Cosmos 1340 Rocket 3.6 18:04:02 10° SSE 18:07:26 28° E 18:09:40 17° NE
Cosmos 2151 2.9 18:05:30 10° S 18:09:37 59° E 18:13:46 10° NNE
Cosmos 1515 Rocket 3.7 18:06:11 10° N 18:10:40 78° W 18:15:06 10° S
Cosmos 332 Rocket 4.1 18:06:00 10° SSW 18:10:48 67° WNW 18:15:39 10° NNE
SKYMED 2 3.6 18:09:21 10° NNE 18:13:42 87° WNW 18:18:03 10° SSW
Cosmos 1844 3.8 18:08:12 10° NNW 18:13:59 82° WSW 18:19:46 10° SSE
Abrixas 3.7 18:12:46 10° SSW 18:15:15 25° SE 18:15:50 23° ESE
SL-14 R/B 3.1 18:12:24 10° S 18:16:17 70° E 18:20:13 10° NNE
Cosmos 1805 Rocket 4.3 18:13:26 10° SSE 18:17:22 32° E 18:19:55 18° NE
Cosmos 1626 3.8 18:16:14 10° SE 18:17:50 18° ESE 18:17:50 18° ESE
Cosmos 1151 Rocket 2.9 18:16:03 10° N 18:20:21 90° SSE 18:24:38 10° S
Cosmos 1634 Rocket 4.1 18:14:23 10° N 18:20:36 79° W 18:26:45 10° S
Cosmos 1484 Rocket 3.7 18:17:38 10° S 18:21:26 52° W 18:25:20 10° NNW
DMSP B5D1-3 4.4 18:18:39 10° NNE 18:23:46 82° ESE 18:28:51 10° SSW
NOAA 12 4.0 18:19:09 10° SSE 18:24:18 64° ENE 18:29:31 10° N
COSMOS 2428 4.0 18:19:08 10° SW 18:24:26 38° WNW 18:29:45 10° N
Cosmos 1125 Rocket 3.4 18:19:27 10° NNW 18:24:42 86° ENE 18:29:53 10° SSE
Cosmos 1500 Rocket 4.2 18:20:42 10° SSW 18:24:56 56° W 18:29:14 10° N
Cosmos 2237 Rocket 2.1 18:22:07 10° SSW 18:27:44 80° ESE 18:33:00 12° NNE
BREEZE-M DEB (TANK) 4.3 18:24:36 10° WNW 18:30:43 35° WSW 18:33:34 10° SSE
ALOS 2.8 18:26:52 10° SE 18:31:01 33° ENE 18:35:13 10° N
SL-16 R/B 2.7 18:27:19 10° S 18:32:26 37° ESE 18:34:21 29° ENE
Cosmos 44 3.4 18:28:00 10° SSW 18:33:18 87° ESE 18:36:41 22° NNE
Cosmos 1300 3.2 18:31:01 10° NNW 18:34:48 62° W 18:38:35 10° S
Spot 2 Rocket 4.0 18:30:19 10° SE 18:34:54 36° ENE 18:39:29 10° N
Cosmos 1726 2.9 18:33:12 10° NNW 18:36:54 55° W 18:40:35 10° S
Cosmos 371 Rocket 4.3 18:36:40 10° SW 18:41:16 46° WNW 18:45:55 10° N
Sich 1 3.7 18:37:22 10° SSE 18:40:52 36° ESE 18:40:52 36° ESE
Transit 2A Rocket 4.4 18:37:15 10° NNW 18:41:34 62° ENE 18:43:20 33° SE
Cosmos 2297 3.9 18:36:22 10° NNW 18:41:52 47° ENE 18:44:55 25° ESE
NOSS 0 Rocket 4.2 18:36:30 10° SSW 18:42:41 70° WNW 18:48:47 11° NNE
BREEZE-M DEB (TANK) 2.0 18:40:55 10° WSW 18:43:04 73° WSW 18:43:04 73° WSW
Lacrosse 5 rocket 1.5 18:40:02 10° NNW 18:43:38 46° NE 18:43:38 46° NE
Cosmos 1633 Rocket 4.2 18:40:29 10° SSE 18:42:54 27° SE 18:42:54 27° SE
SL-19 R/B 4.3 18:38:44 10° SSE 18:44:37 60° ENE 18:50:11 10° N
FREGAT/IRIS 4.3 18:46:13 10° S 18:52:42 - NNW 18:47:34 24° S
OTV 4 1.9 18:46:42 10° W 18:49:22 30° SSW 18:49:25 30° SSW
CENTAUR R/B 4.0 18:46:56 10° W 18:52:25 31° NW 18:58:26 10° NNE
Resurs 01 Rocket 2.0 18:54:23 44° NNE 18:54:23 44° NNE 18:57:49 10° N
CZ-3A R/B 2.7 18:58:45 10° NW 19:03:25 68° NE 19:04:51 46° ESE
Lacrosse 5 4.1 19:01:27 10° NW 19:03:44 13° N 19:04:47 12° N
Aureole 2 Rocket 3.2 19:00:21 10° SSW 19:03:54 56° WNW 19:04:39 47° NNW
Cosmos 1707 Rocket 3.4 19:01:38 10° N 19:05:58 88° ENE 19:10:18 10° S
FengYun 1-2 T 4.1 19:04:03 10° SSE 19:09:38 84° ENE 19:15:12 10° NNW
Cosmos 1461 3.6 19:07:33 10° SSW 19:10:31 42° S 19:10:31 42° S
SJ-6B 4.0 19:08:48 10° S 19:12:39 44° W 19:16:37 10° NNW
Cosmos 1666 Rocket 3.7 19:11:37 10° S 19:15:25 68° SSW 19:15:25 68° SSW
FENGYUN 3A 3.7 19:18:59 10° S 19:24:19 77° WSW 19:29:43 10° NNW
Cosmos 304 Rocket 4.4 19:22:31 10° SW 19:27:14 54° WNW 19:28:08 46° NNW
Cosmos 2333 Rocket 4.0 19:23:13 10° WSW 19:27:59 27° NW 19:32:21 12° N
Nadezhda 4 Rocket 4.2 19:26:50 10° SSW 19:33:02 69° W 19:39:21 10° N
Cosmos 2278 Rocket 4.4 19:42:11 10° NW 19:46:37 24° WSW 19:51:00 10° SSW
Cosmos 1092 Rocket 4.2 19:44:02 10° SSW 19:50:20 71° W 19:51:46 53° NNW
USA 215 4.5 19:45:33 14° S 19:50:36 37° SW 19:56:36 10° WNW
ALOS 4.4 20:04:44 10° SSW 20:08:29 24° W 20:12:17 10° NW
SL-16 R/B 3.7 20:11:32 10° WSW 20:16:19 32° WNW 20:16:19 32° WNW
